Change the Weather History Date:

Friday, July 12, 2013

  Actual Average Record
Temperature  
Mean Temperature 77 °F 71 °F  
Max Temperature 89 °F 84 °F 102 °F (2006)
Min Temperature 65 °F 57 °F 43 °F (2008)
Degree Days  
Heating Degree Days 0 1  
Month to date heating degree days 0 12  
Since 1 June heating degree days 89 126  
Since 1 July heating degree days 0 12  
Cooling Degree Days 12 6  
Month to date cooling degree days 99 65  
Year to date cooling degree days 155 133  
Since 1 June cooling degree days 145 127  
Growing Degree Days 28 (Base 50)    
Moisture  
Dew Point 53 °F    
Average Humidity 47    
Maximum Humidity 70    
Minimum Humidity 23    
Precipitation  
Precipitation 0.00 in 0.08 in 0.45 in (2014)
Month to date precipitation 0.65 0.85  
Year to date precipitation 6.51 9.52  
Sea Level Pressure  
Sea Level Pressure 29.73 in    
Wind  
Wind Speed 12 mph (NW)    
Max Wind Speed 23 mph    
Max Gust Speed 29 mph    
T = Trace of Precipitation, MM = Missing Value Source: NWS Daily Summary

Daily Weather History Graph

Daily Weather History Graph

Search for Another Location

Airport or City:

Trip Planner

Search our weather history database for the weather conditions in past years. The results will help you decide how hot, cold, wet, or windy it might be!

Date:

Astronomy

Jul. 12, 2013 Rise Set
Actual Time 5:17 AM MDT 8:42 PM MDT
Civil Twilight 4:40 AM MDT 9:18 PM MDT
Nautical Twilight 3:51 AM MDT 10:07 PM MDT
Astronomical Twilight 2:49 AM MDT 11:08 PM MDT
Moon 9:52 AM MDT (7/12) 10:36 PM MDT (7/12)
Length of Visible Light 16h 38m
Length of Day
15h 24m
Waxing Crescent, 18% of the Moon is Illuminated
Jul 12
Waxing Crescent
Jul 15
First Quarter
Jul 22
Full
Jul 29
Last Quarter
Aug 6
New

Hourly Weather History & Observations

Time (MDT) Temp. Heat Index Dew Point Humidity Pressure Visibility Wind Dir Wind Speed Gust Speed Precip Events Conditions
12:56 AM 78.1 °F - 53.1 °F 42% 29.55 in - SW 6.9 mph - N/A   Unknown
1:56 AM 70.0 °F - 57.0 °F 63% 29.57 in - WNW 16.1 mph - N/A   Unknown
2:56 AM 69.1 °F - 59.0 °F 70% 29.57 in - WNW 9.2 mph - N/A   Unknown
3:56 AM 69.1 °F - 57.9 °F 68% 29.59 in - WNW 16.1 mph - N/A   Unknown
4:56 AM 72.0 °F - 59.0 °F 64% 29.60 in - NNW 31.1 mph 38.0 mph N/A   Unknown
5:56 AM 73.0 °F - 55.0 °F 53% 29.65 in - NW 25.3 mph 32.2 mph N/A   Unknown
6:56 AM 73.0 °F - 54.0 °F 51% 29.69 in - NW 19.6 mph - N/A   Unknown
7:56 AM 73.9 °F - 54.0 °F 50% 29.69 in - NW 15.0 mph - N/A   Unknown
8:56 AM 73.9 °F - 55.0 °F 52% 29.71 in - WNW 11.5 mph - N/A   Unknown
9:56 AM 77.0 °F - 55.9 °F 48% 29.72 in - NW 11.5 mph - N/A   Unknown
10:56 AM 79.0 °F - 54.0 °F 42% 29.75 in - WNW 13.8 mph - N/A   Unknown
12:56 PM 84.9 °F 83.6 °F 55.0 °F 36% 29.75 in - West 10.4 mph - N/A   Unknown
1:56 PM 86.0 °F - 50.0 °F 29% 29.77 in - NW 16.1 mph - N/A   Unknown
2:56 PM 84.9 °F - 50.0 °F 30% 29.79 in - NW 11.5 mph 19.6 mph N/A   Unknown
3:56 PM 82.9 °F - 48.0 °F 29% 29.80 in - NNW 12.7 mph - N/A   Unknown
4:56 PM 82.0 °F - 48.9 °F 31% 29.80 in - North 12.7 mph - N/A   Unknown
5:56 PM 84.0 °F - 42.1 °F 23% 29.79 in - North 8.1 mph - N/A   Unknown
6:56 PM 81.0 °F - 45.0 °F 28% 29.81 in - Calm Calm - N/A   Unknown
7:56 PM 79.0 °F - 46.0 °F 31% 29.81 in - East 5.8 mph - N/A   Unknown
8:56 PM 75.0 °F - 54.0 °F 48% 29.83 in - ESE 6.9 mph - N/A   Unknown
9:56 PM 72.0 °F - 53.1 °F 51% 29.85 in - SSE 6.9 mph - N/A   Unknown
10:56 PM 70.0 °F - 52.0 °F 53% 29.85 in - South 4.6 mph - N/A   Unknown
11:56 PM 69.1 °F - 51.1 °F 53% 29.92 in - SE 4.6 mph - N/A   Unknown